Regional Weather Roundup
Issued by NWS

Home | Current Version | Previous Version | Graphics & Text | Print | Product List | Glossary On
Versions: 1 2 3 4 5 6 7 8 9 10 11 12 13 14 15 16 17 18 19 20 21 22 23 24 25 26 27 28 29 30 31 32 33 34 35 36 37 38 39 40 41 42 43 44 45 46 47 48 49 50
000
ASUS45 KABQ 271501
RWRNM
WEATHER ROUNDUP FOR NEW MEXICO
NATIONAL WEATHER SERVICE ALBUQUERQUE NM
900 AM MDT WED AUG 27 2014

NOTE: "FAIR" MEANS FEW OR NO CLOUDS BELOW 12,000 FEET AGL WITH NO
       SIGNIFICANT WEATHER OR OBSTRUCTIONS TO VISION.

      THIS PRODUCT IS RELEASED AS TWO VERSIONS.  ONE VERSION NEAR
      THE TOP OF THE HOUR CONTAINING PRELIMINARY DATA FROM ALBUQUERQUE
      AND OTHER STATIONS.  A FINAL VERSION WITH ADDITIONAL DATA IS
      ISSUED ABOUT 10 MINUTES AFTER THE HOUR.

NMZ501-503-504-510>518-271600-
NORTHWEST PLATEAU/NORTHCENTRAL MOUNTAINS

CITY           SKY/WX    TMP DP  RH WIND       PRES   REMARKS
FARMINGTON     MOSUNNY   59  54  83 NE5       30.33R
LOS ALAMOS     CLOUDY    56  56 100 NE3       30.40R
SANTA FE       CLOUDY    60  56  86 CALM      30.34S
TAOS           CLOUDY    57  52  82 SW7       30.40S
ANGEL FIRE     PTSUNNY   56  49  75 SW12      30.44S

$$
NMZ402-403-502-505>509-271600-
WESTCENTRAL MOUNTAINS/SOUTHWEST MOUNTAINS

CITY           SKY/WX    TMP DP  RH WIND       PRES   REMARKS
GALLUP         CLOUDY    52  50  93 W5        30.40R
SILVER CITY    PTSUNNY   68  57  68 W3        30.31R

$$
NMZ407-409-411-412-271600-
SOUTHERN DESERTS

CITY           SKY/WX    TMP DP  RH WIND       PRES   REMARKS
LORDSBURG      FAIR      68  63  83 NW3       30.23S
DEMING         MOSUNNY   72  60  66 E10       30.23R
LAS CRUCES     SUNNY     71  62  73 CALM      30.24S
HOLLOMAN AFB   PTSUNNY   65  65 100 NW12      30.21R
ALAMOGORDO     CLOUDY    66  64  94 NW6       30.23R
T OR C         MOSUNNY   66  60  81 NE6       30.26R

$$
NMZ519>523-271600-
CENTRAL VALLEYS/CENTRAL HIGHLANDS

CITY           SKY/WX    TMP DP  RH WIND       PRES   REMARKS
ALBUQUERQUE    PTSUNNY   64  57  78 CALM      30.32R
DOUBLE EAGLE   MOSUNNY   61  55  82 W5        30.34S
CLINES CORNERS PTSUNNY   58  55  90 W12       30.35S
BELEN          FAIR      65  57  75 NW7       30.31R
SOCORRO        CLOUDY    64  60  87 N5        30.29R

$$
NMZ524>526-539-540-271600-
SOUTHCENTRAL MOUNTAINS

CITY           SKY/WX    TMP DP  RH WIND       PRES   REMARKS
RUIDOSO        NOT AVBL

$$
NMZ527>531-271600-
NORTHEAST HIGHLANDS/NORTHEAST PLAINS

CITY           SKY/WX    TMP DP  RH WIND       PRES   REMARKS
LAS VEGAS      MOSUNNY   61  55  81 S12       30.32S
RATON          PTSUNNY   61  57  87 SW13      30.27R
CLAYTON        PTSUNNY   68  62  81 S14       30.21F

$$
NMZ532>537-271600-
EASTCENTRAL PLAINS

CITY           SKY/WX    TMP DP  RH WIND       PRES   REMARKS
TUCUMCARI        N/A     73  63  70 SW5       30.18F
CANNON AFB     PTSUNNY   71  65  79 W8        30.23S
CLOVIS AIRPORT   N/A     73  59  60 W5        30.24F

$$
NMZ028-029-538-271600-
SOUTHEAST PLAINS

CITY           SKY/WX    TMP DP  RH WIND       PRES   REMARKS
ROSWELL        CLOUDY    72  62  71 NE8       30.19R
CARLSBAD       CLOUDY    74  63  68 NW13      30.17R
HOBBS          SUNNY     75  59  57 CALM      30.19R


$$



USA.gov is the U.S. government's official web portal to all federal, state and local government web resources and services.